Regional Weather Roundup
Issued by NWS

Home | Current Version | Previous Version | Text Only | Print | Product List | Glossary On
Versions: 1 2 3 4 5 6 7 8 9 10 11 12 13 14 15 16 17 18 19 20 21 22 23 24 25 26 27 28 29 30 31 32 33 34 35 36 37 38 39 40 41 42 43 44 45 46 47 48 49 50
000
ASUS43 KMKX 020300
RWRWI

WISCONSIN REGIONAL WEATHER ROUNDUP
NATIONAL WEATHER SERVICE MILWAUKEE/SULLIVAN WI
1000 PM CDT FRI AUG 01 2014

NOTE: "FAIR" INDICATES FEW OR NO CLOUDS BELOW 12,000 FEET WITH NO
SIGNIFICANT WEATHER AND/OR OBSTRUCTIONS TO VISIBILITY.

WIZ001-002-006>008-014>016-023>028-020400-
NORTHWEST WISCONSIN

CITY           SKY/WX    TMP DP  RH WIND       PRES   REMARKS
SUPERIOR ARPT  CLEAR     55  52  91 N3        30.09R
ASHLAND        NOT AVBL
HAYWARD        NOT AVBL
SIREN          CLEAR     67  63  87 CALM      30.08R
RICE LAKE      CLEAR     66  60  81 CALM      30.11R
LADYSMITH      CLEAR     66  59  79 CALM      30.12S
EAU CLAIRE     NOT AVBL
MENOMONIE      PTCLDY    70  62  76 CALM      30.08R
NEW RICHMOND   PTCLDY    70  60  69 E5        30.09R
OSCEOLA        MOCLDY    71  64  79 CALM      30.11R
$$

WIZ003>005-009-010-017-018-020400-
NORTH CENTRAL WISCONSIN

CITY           SKY/WX    TMP DP  RH WIND       PRES   REMARKS
WOODRUFF       CLEAR     59  49  69 CALM      30.13S
RHINELANDER    NOT AVBL
EAGLE RIVER    CLEAR     58  56  94 CALM      30.13R
LAND O LAKES   CLEAR     55  54  97 CALM      30.14R
PHILLIPS       CLEAR     59  58  94 CALM      30.12R
TOMAHAWK       CLEAR     57  55  93 CALM      30.13R
MEDFORD        CLEAR     60  58  93 CALM      30.12R
MERRILL        CLEAR     64  60  86 NW3       30.11R
$$

WIZ029-030-035-036-043>047-020400-
CENTRAL WISCONSIN

CITY           SKY/WX    TMP DP  RH WIND       PRES   REMARKS
WAUSAU         NOT AVBL
MOSINEE        NOT AVBL
MARSHFIELD     NOT AVBL
STEVENS POINT  CLEAR     57  56  97 N6        30.12R
WAUPACA        CLEAR     63  56  79 CALM      30.10R
WAUTOMA        NOT AVBL
WISC RAPIDS    NOT AVBL
CAMP DOUGLAS   NOT AVBL
$$

WIZ011>013-019>022-031-037>040-048>050-020400-
NORTHEAST WISCONSIN

CITY           SKY/WX    TMP DP  RH WIND       PRES   REMARKS
ANTIGO         CLEAR     62  59  91 CALM      30.12R
STURGEON BAY   PTCLDY    63  57  82 E3        30.09S
GREEN BAY      NOT AVBL
MANITOWOC      NOT AVBL
APPLETON       MOCLDY    64  63  94 VRB3      30.10R
CLINTONVILLE   PTCLDY    61  57  88 CALM      30.09R
OSHKOSH        NOT AVBL
$$

WIZ032>034-041-042-053>061-020400-
SOUTHWEST WISCONSIN

CITY           SKY/WX    TMP DP  RH WIND       PRES   REMARKS
LA CROSSE      NOT AVBL
SPARTA         CLOUDY    69  55  62 SE8       30.11R THUNDER
VIROQUA        FAIR      67  52  59 SE7       30.12R
BOSCOBEL       NOT AVBL
PRAIRIE DU CHI PTCLDY    72  55  56 E7        30.09R
PLATTEVILLE    FAIR      66  55  66 E8        30.12R
$$

WIZ056-057-062-063-064-067-068-020400-
SOUTH CENTRAL WISCONSIN

CITY           SKY/WX    TMP DP  RH WIND       PRES   REMARKS
BARABOO/DELLS  CLOUDY    63  56  79 NW6       30.07F
LONE ROCK      NOT AVBL
WATERTOWN      CLOUDY    63  59  88 S3        30.10R
MADISON        NOT AVBL
MIDDLETON      FAIR      64  59  85 E5        30.12R
MONROE         MOCLDY    64  55  72 SE7       30.13R
JANESVILLE     CLOUDY    66  55  68 S13       30.10F
$$

WIZ051-052-058>065-066-070>072-020400-
SOUTHEAST WISCONSIN

CITY           SKY/WX    TMP DP  RH WIND       PRES   REMARKS
MILWAUKEE      NOT AVBL
WAUKESHA       CLOUDY    59  55  88 S6        30.12
MILWAUKEE/TIMM CLOUDY    61  55  82 SW6       30.12R
RACINE         NOT AVBL
BURLINGTON     CLOUDY    60  56  87 SE13      30.11F
KENOSHA        NOT AVBL
FOND DU LAC    NOT AVBL
SHEBOYGAN      NOT AVBL
WEST BEND      MOCLDY    64  52  63 CALM      30.10S
JUNEAU         CLOUDY    63  54  70 CALM      30.11R
$$

LSZ147-162-020400-
LAKE SUPERIOR

STATION/POSITION TIME  TEMP    WIND        PRES    WAVE
                       AIR SEA DIR/SP/G            HT/PER
                 (UTC) (F)     (DEG/KT/KT) (MB)    (FT/S)
W MID LAKE BUOY  0150   50 47   30/  4/  6 1019.4R   0
PORT WING        0200   59      20/  9/ 11 1018.6
SAXON HARBOR     0200             CALM     1018.6S
$$

LMZ867-665-643>646-020400-
LAKE MICHIGAN

STATION/POSITION TIME  TEMP    WIND        PRES    WAVE
                       AIR SEA DIR/SP/G            HT/PER
                 (UTC) (F)     (DEG/KT/KT) (MB)    (FT/S)
N MID LAKE BUOY  0150   62 60   CALM  /  2 1018.7R   0
NORTHPORT PIER   0200   64     170/  2/  4 1019.0R
SISTER BAY       0211   63        CALM       N/A
ALGOMA LAKESHORE 0206             CALM       N/A
KEWAUNEE LAKESHO 0200   60     160/  6/  6 1017.7R
SHEBOYGAN LAKESH 0200   71     240/  7/  7 1018.5R
PORT WASHINGTON  0200   68     260/  7/ 12 1019.3
ATWATER BUOY     0200   66     230/ 10     1020.0R
MILWAUKEE LAKESH 0200   67     270/ 12/ 17   N/A
S MID LAKE BUOY  0150   67 65  240/  4/  4 1019.0R   0
KENOSHA   LAKESH 0200   66     310/  8/ 15 1020.0R
$$

TC  - TEMPERATURE IN CELSIUS
VSB - VISIBILITY IN STATUTE MILES
WCI - WIND CHILL INDEX
HX  - HEAT INDEX



USA.gov is the U.S. government's official web portal to all federal, state and local government web resources and services.